Visibility
15.0 15.0 15.0 15.0 11.8 0.2 3.6 0.7 0.1 0.4 15.0 0.1 1.1 0.3 15.0 15.0 15.0 15.0 15.0 15.0 15.0 15.0 15.0 11.1 2.7 14.9 15.0 15.0 15.0 15.0 15.0 15.0 15.0 15.0 15.0 15.0 15.0 15.0 15.0 14.2 0.4 0.1 0.1 2.4
15.0 15.0 15.0 11.5 0.1 10.2 2.4 0.1 0.2 4.8 0.5 0.1 0.1 12.1 15.0 15.0 15.0 15.0 15.0 15.0 15.0 15.0 0.3 0.0 0.5 14.0 15.0 15.0 15.0 15.0 15.0 15.0 15.0 15.0 15.0 15.0 15.0 15.0 15.0 15.0 15.0 0.7 0.1 11.1
0.5 0.9 1.0 0.1 4.1 2.0 3.4 0.7 0.1 0.5 0.4 1.8 0.7 4.1 0.1 0.2 15.0 15.0 15.0 15.0 9.4 0.6 0.0 3.4 0.0 0.3 15.0 15.0 15.0 15.0 15.0 15.0 15.0 15.0 15.0 15.0 12.4 15.0 15.0 2.9 1.4 5.0 9.2 10.4
0.1 0.1 0.1 0.1 0.9 2.3 2.6 0.8 1.1 5.9 0.1 0.1 0.3 15.0 0.2 0.1 0.1 5.4 7.7 0.1 0.1 0.0 0.0 0.0 0.0 0.1 3.9 15.0 15.0 15.0 15.0 12.2 15.0 15.0 15.0 15.0 15.0 15.0 15.0 15.0 15.0 13.9 2.8 11.9
0.1 0.2 0.1 0.1 3.0 3.2 1.8 0.1 0.4 0.3 2.1 9.4 0.6 0.1 0.0 0.0 0.0 0.0 0.0 0.0 0.1 0.2 0.0 0.4 0.0 0.0 0.0 0.0 11.0 14.7 15.0 14.8 15.0 15.0 15.0 15.0 15.0 15.0 15.0 15.0 15.0 15.0 15.0 15.0
0.1 0.2 0.1 0.2 5.1 6.3 2.8 0.7 5.3 15.0 0.2 0.1 0.1 4.4 0.9 0.0 0.1 0.1 5.9 0.1 0.0 0.0 0.0 12.8 11.0 15.0 15.0 9.8 15.0 4.3 1.2 0.9 4.1 2.5 15.0 15.0 14.4 15.0 15.0 15.0 15.0 10.9 6.4 5.2
0.2 0.2 0.2 2.1 5.8 2.3 6.5 12.0 13.6 5.1 0.3 0.2 0.3 0.1 15.0 0.0 0.0 0.0 0.8 7.8 0.0 0.1 15.0 15.0 15.0 15.0 15.0 15.0 15.0 15.0 15.0 15.0 15.0 15.0 15.0 0.8 15.0 15.0 15.0 15.0 1.2 10.1 8.6 15.0
6.4 2.4 1.9 3.2 6.1 10.1 6.2 11.4 10.6 0.3 0.0 0.2 0.1 0.0 0.0 0.1 0.1 0.0 0.0 5.1 13.9 15.0 15.0 5.9 15.0 15.0 15.0 15.0 15.0 15.0 15.0 15.0 15.0 15.0 15.0 14.2 15.0 15.0 15.0 15.0 3.6 15.0 15.0 15.0
9.3 15.0 10.6 15.0 15.0 15.0 15.0 15.0 15.0 15.0 0.0 0.0 9.3 0.1 0.1 0.0 0.0 0.0 15.0 15.0 15.0 15.0 15.0 15.0 15.0 15.0 15.0 15.0 15.0 15.0 15.0 15.0 15.0 15.0 13.4 13.7 15.0 15.0 15.0 15.0 13.8 15.0 15.0 15.0
14.8 14.4 15.0 15.0 15.0 15.0 15.0 15.0 15.0 15.0 11.4 15.0 15.0 15.0 5.4 15.0 15.0 15.0 15.0 15.0 15.0 15.0 15.0 15.0 15.0 15.0 15.0 15.0 15.0 15.0 15.0 15.0 15.0 7.9 0.1 1.2 14.4 15.0 13.9 1.0 5.5 15.0 15.0 15.0
15.0 15.0 15.0 15.0 15.0 15.0 15.0 15.0 15.0 15.0 15.0 15.0 15.0 15.0 15.0 15.0 15.0 15.0 15.0 15.0 15.0 15.0 15.0 15.0 15.0 15.0 15.0 15.0 15.0 15.0 1.1 0.4 15.0 3.3 0.1 0.2 3.7 7.3 15.0 15.0 15.0 15.0 15.0 15.0
15.0 15.0 15.0 15.0 15.0 15.0 15.0 15.0 15.0 15.0 15.0 15.0 15.0 15.0 15.0 15.0 15.0 15.0 15.0 15.0 15.0 15.0 15.0 15.0 15.0 15.0 15.0 15.0 4.8 15.0 14.4 14.5 15.0 15.0 15.0 15.0 15.0 15.0 15.0 15.0 15.0 15.0 15.0 15.0
15.0 15.0 15.0 15.0 15.0 15.0 15.0 15.0 15.0 15.0 15.0 15.0 15.0 15.0 15.0 15.0 15.0 15.0 15.0 15.0 15.0 15.0 15.0 15.0 15.0 15.0 15.0 15.0 15.0 15.0 15.0 15.0 15.0 15.0 15.0 15.0 15.0 15.0 15.0 15.0 15.0 15.0 15.0 15.0
15.0 15.0 15.0 15.0 15.0 15.0 15.0 15.0 15.0 15.0 15.0 15.0 15.0 15.0 15.0 15.0 15.0 15.0 15.0 15.0 15.0 15.0 15.0 15.0 15.0 15.0 15.0 15.0 15.0 15.0 15.0 15.0 15.0 15.0 15.0 15.0 15.0 15.0 15.0 15.0 15.0 15.0 15.0 14.9
15.0 15.0 15.0 15.0 15.0 15.0 15.0 15.0 15.0 15.0 15.0 15.0 15.0 15.0 15.0 15.0 15.0 15.0 15.0 15.0 15.0 15.0 15.0 15.0 15.0 15.0 15.0 15.0 15.0 15.0 15.0 7.2 0.2 11.3 15.0 15.0 15.0 15.0 15.0 15.0 13.0 1.0 10.9 15.0
15.0 15.0 15.0 15.0 15.0 15.0 15.0 15.0 15.0 15.0 15.0 15.0 15.0 15.0 15.0 15.0 15.0 15.0 15.0 15.0 15.0 15.0 15.0 15.0 15.0 15.0 15.0 10.3 15.0 15.0 15.0 15.0 15.0 15.0 15.0 15.0 15.0 15.0 15.0 15.0 15.0 15.0 15.0 15.0
15.0 15.0 15.0 15.0 15.0 15.0 15.0 15.0 15.0 15.0 15.0 15.0 15.0 15.0 15.0 15.0 15.0 15.0 15.0 15.0 15.0 15.0 15.0 15.0 15.0 15.0 15.0 14.8 15.0 15.0 15.0 15.0 15.0 15.0 15.0 15.0 15.0 0.0 14.2 15.0 15.0 15.0 15.0 15.0
15.0 15.0 15.0 15.0 15.0 15.0 15.0 15.0 15.0 15.0 15.0 15.0 15.0 15.0 15.0 15.0 15.0 15.0 15.0 15.0 15.0 15.0 15.0 15.0 15.0 15.0 15.0 15.0 15.0 15.0 15.0 15.0 15.0 15.0 15.0 8.7 15.0 15.0 15.0 15.0 15.0 15.0 15.0 15.0
15.0 15.0 15.0 15.0 15.0 15.0 15.0 15.0 15.0 15.0 15.0 15.0 15.0 7.9 3.6 15.0 15.0 15.0 15.0 15.0 15.0 15.0 15.0 15.0 15.0 15.0 15.0 15.0 15.0 15.0 15.0 15.0 15.0 15.0 15.0 15.0 15.0 15.0 15.0 15.0 15.0 15.0 15.0 15.0
15.0 15.0 15.0 12.1 15.0 15.0 15.0 15.0 15.0 15.0 15.0 15.0 15.0 15.0 15.0 15.0 15.0 15.0 4.0 14.7 15.0 2.2 15.0 14.8 14.7 15.0 15.0 15.0 15.0 15.0 15.0 15.0 15.0 15.0 15.0 15.0 15.0 15.0 15.0 15.0 15.0 15.0 15.0 15.0
15.0 15.0 15.0 15.0 15.0 15.0 15.0 15.0 15.0 15.0 15.0 15.0 15.0 15.0 15.0 15.0 15.0 15.0 14.8 15.0 15.0 0.9 15.0 11.5 8.9 10.3 15.0 15.0 15.0 15.0 15.0 15.0 15.0 15.0 15.0 15.0 15.0 15.0 15.0 15.0 15.0 15.0 15.0 15.0
15.0 15.0 15.0 15.0 15.0 15.0 15.0 15.0 15.0 15.0 15.0 15.0 15.0 15.0 15.0 15.0 15.0 15.0 15.0 15.0 15.0 15.0 15.0 0.2 7.9 15.0 15.0 15.0 15.0 15.0 15.0 15.0 15.0 15.0 15.0 15.0 15.0 15.0 15.0 15.0 15.0 15.0 15.0 15.0
15.0 15.0 15.0 15.0 15.0 15.0 15.0 15.0 15.0 15.0 15.0 15.0 15.0 15.0 15.0 15.0 15.0 13.7 15.0 14.6 14.0 15.0 6.6 11.9 0.1 0.0 0.0 0.0 0.1 0.0 2.9 15.0 15.0 15.0 0.4 2.5 2.5 15.0 15.0 15.0 15.0 15.0 15.0 15.0
15.0 15.0 15.0 9.3 11.1 15.0 15.0 0.7 15.0 15.0 15.0 15.0 15.0 15.0 15.0 15.0 15.0 15.0 15.0 15.0 15.0 15.0 15.0 0.7 0.4 0.6 2.4 10.0 15.0 15.0 15.0 15.0 15.0 15.0 15.0 15.0 15.0 15.0 15.0 15.0 15.0 0.1 7.8 15.0
15.0 15.0 15.0 15.0 15.0 15.0 15.0 15.0 15.0 15.0 15.0 15.0 15.0 15.0 15.0 15.0 15.0 15.0 15.0 15.0 15.0 11.2 0.9 0.1 0.1 0.2 1.4 0.1 15.0 15.0 15.0 15.0 15.0 15.0 15.0 15.0 15.0 15.0 15.0 15.0 15.0 15.0 15.0 15.0
15.0 15.0 15.0 15.0 15.0 15.0 15.0 15.0 15.0 15.0 15.0 15.0 15.0 15.0 15.0 15.0 15.0 15.0 15.0 15.0 8.6 0.9 0.2 0.2 2.5 9.3 0.2 7.2 1.4 15.0 15.0 15.0 15.0 15.0 2.4 15.0 15.0 15.0 15.0 15.0 15.0 15.0 6.1 15.0
15.0 15.0 15.0 15.0 15.0 15.0 13.9 15.0 15.0 15.0 15.0 9.2 15.0 15.0 14.7 15.0 15.0 15.0 15.0 15.0 14.9 14.4 15.0 15.0 15.0 15.0 15.0 15.0 15.0 0.4 6.8 15.0 15.0 15.0 15.0 15.0 15.0 15.0 15.0 1.4 14.0 14.9 12.5 15.0